Location: Carnières
(50.1682°N, 3.3474°E)
Time: 14:15:09
(UTC+00:00)

FENGYUN 1C DEB - Visible Passes

Search period start: 04 October 2024 00:00
Search period end: 14 October 2024 00:00
Orbit: 774 x 1001 km, 98.5° (Epoch: 02 October)

Date Brightness Start Highest point End Pass type
(mag) Time Alt. Az. Time Alt. Az. Time Alt. Az.
04 Oct ? 23:58:40 10° N 23:59:25 14° N 23:59:25 14° N visible
05 Oct ? 23:57:38 10° N 23:58:18 14° N 23:58:18 14° N visible
06 Oct ? 23:56:34 10° N 23:57:11 13° N 23:57:11 13° N visible
07 Oct ? 23:55:29 10° N 23:56:01 13° N 23:56:01 13° N visible
08 Oct ? 23:54:22 10° N 23:54:50 12° N 23:54:50 12° N visible
09 Oct ? 23:53:15 10° N 23:53:38 12° N 23:53:38 12° N visible
10 Oct ? 23:52:06 10° N 23:52:25 12° N 23:52:25 12° N visible
11 Oct ? 23:50:55 10° N 23:51:10 11° N 23:51:10 11° N visible
12 Oct ? 23:49:44 10° N 23:49:54 11° N 23:49:54 11° N visible
13 Oct ? 23:48:31 10° N 23:48:36 10° N 23:48:36 10° N visible
